Location: Oshawa
(43.9000°N, 78.8670°W)
Time: 04:10:25
(UTC-04:00)

Cosmos 1821 Rocket - Visible Passes

Search period start: 24 March 2017 00:00
Search period end: 03 April 2017 00:00
Orbit: 946 x 1004 km, 82.9° (Epoch: 22 March)

Date Brightness Start Highest point End Pass type
(mag) Time Alt. Az. Time Alt. Az. Time Alt. Az.
24 Mar 7.1 05:37:38 10° NE 05:40:26 13° ENE 05:43:13 10° E visible
24 Mar 4.9 20:51:36 10° SSW 20:57:48 52° WNW 21:03:59 10° N visible
25 Mar 6.6 06:01:28 10° NNE 06:06:18 23° ENE 06:11:03 10° ESE visible
25 Mar 6.0 21:17:50 10° SW 21:23:21 30° WNW 21:28:54 10° N visible
26 Mar 5.6 06:26:11 10° N 06:31:58 39° ENE 06:37:39 10° SE visible
26 Mar 4.1 19:56:36 10° S 20:02:59 80° E 20:09:20 10° N visible
26 Mar 6.8 21:44:57 10° WSW 21:49:07 18° WNW 21:53:17 10° NNW visible
27 Mar 7.3 05:09:09 10° NE 05:10:47 11° ENE 05:12:23 10° ENE visible
27 Mar 4.7 20:22:01 10° SSW 20:28:19 61° W 20:34:36 10° N visible
28 Mar 6.8 05:32:18 10° NNE 05:36:42 20° ENE 05:41:03 10° ESE visible
28 Mar 5.8 20:48:04 10° SW 20:53:50 35° WNW 20:59:34 10° N visible
29 Mar 5.9 05:56:51 10° N 06:02:25 34° ENE 06:07:53 10° SE visible
29 Mar 6.7 21:14:55 10° WSW 21:19:31 21° WNW 21:24:08 10° NNW visible
30 Mar 4.7 06:21:49 10° N 06:27:56 60° E 06:33:56 10° SSE visible
30 Mar 7.4 21:43:22 10° W 21:45:26 12° WNW 21:47:31 10° NW visible
31 Mar 6.9 05:03:13 10° NNE 05:07:06 17° ENE 05:10:56 10° ESE visible
31 Mar 5.6 20:18:22 10° SW 20:24:18 40° WNW 20:30:14 10° N visible
01 Apr 6.1 05:27:33 10° NNE 05:32:51 29° ENE 05:38:04 10° SE visible
01 Apr 6.6 20:44:58 10° WSW 20:49:57 24° WNW 20:54:56 10° NNW visible
02 Apr 5.0 05:52:26 10° N 05:58:25 51° ENE 06:04:19 10° SSE visible
02 Apr 7.2 21:12:46 10° W 21:15:48 14° WNW 21:18:50 10° NNW visible
